Location: Arbon
(43.0005°N, 0.7472°E)
Time: 02:26:00
(UTC+00:00)

In-Cosmos 22 - Pass Details

Date: 07 August 2020
Orbit: 784 x 877 km, 81.2° (Epoch: 27 September)

Event Time Altitude Azimuth Distance (km) Brightness Sun altitude
Rises 01:11:07 0° 350° (N) 3,434 8.3 -28.6°
Reaches altitude 10° 01:13:35 10° 352° (N) 2,481 7.4 -28.5°
Maximum altitude 01:19:13 81° 79° (E) 848 4.1 -28.1°
Enters shadow 01:19:14 81° 81° (E) 848 4.1 -28.1°
